Location: Chateh
(58.6667°N, 118.6000°W)
Time: 11:12:19
(UTC+00:00)

PCSat - Pass Details

Date: 11 December 2023
Orbit: 784 x 791 km, 67.0° (Epoch: 01 March)

Event Time Altitude Azimuth Distance (km) Brightness Sun altitude
Exits shadow 11:07:05 21° 61° (ENE) 1,728 11.8 -39.9°
Drops below altitude 10° 11:08:55 10° 53° (NE) 2,363 12.7 -39.7°
Sets 11:11:25 0° 47° (NE) 3,297 13.6 -39.4°
